Regional Weather Roundup
Issued by NWS Jackson, KY

Home | Current Version | Previous Version | Graphics & Text | Print | Product List | Glossary On
Versions: 1 2 3 4 5 6 7 8 9 10 11 12 13 14 15 16 17 18 19 20 21 22 23 24 25 26 27 28 29 30 31 32 33 34 35 36 37 38 39 40 41 42 43 44 45 46 47 48 49 50
000
ASUS43 KJKL 192010
RWRJKL

EAST KENTUCKY HOURLY WEATHER ROUNDUP
NATIONAL WEATHER SERVICE JACKSON KY
400 PM EDT SAT AUG 19 2017

NOTE: "FAIR" INDICATES FEW OR NO CLOUDS BELOW 12,000 FEET WITH
NO SIGNIFICANT WEATHER AND/OR OBSTRUCTIONS TO VISIBILITY.

* THESE REPORTS ARE NOT UNDER NWS QUALITY CONTROL AND MAY NOT
  REPORT WEATHER SUCH AS PRECIPITATION AND FOG.

KYZ079-080-083-085-087-088-110-112-115-119-120-192100
...EASTERN KENTUCKY...

CITY           SKY/WX    TMP DP  RH WIND       PRES   REMARKS
JACKSON        MOSUNNY   85  67  54 VRB5      30.00F
LONDON         SUNNY     85  62  46 S8        30.00F
SOMERSET*      SUNNY     82  63  51 W8        30.00F
MONTICELLO*    SUNNY     87  69  54 N9        30.01F HX  91
WILLIAMSBURG*  CLEAR     84  66  54 SW6       30.00F
MIDDLESBORO*   MOSUNNY   86  67  52 SE3       30.00F
HARLAN APT*    CLEAR     86  55  35 SW3       30.02F
PIKE CO APT*     N/A     82  67  59 SW3       30.01F
BIG SANDY APT* PTCLDY    85  67  56 SW5       29.99F
MOREHEAD APT*  CLOUDY    82  64  54 S8        30.00F
$$

KYZ035-036-041-042-044-050-067-078-099-192100
...CENTRAL KENTUCKY...

CITY           SKY/WX    TMP DP  RH WIND       PRES   REMARKS
MT STERLING*   SUNNY     86  64  48 W3        29.99F
FLEMING/MASON* SUNNY     87  66  49 SW8       29.97F HX  90
DANVILLE*      MOSUNNY   86  66  51 S6        30.00S
LEXINGTON      MOSUNNY   86  64  47 SW6       29.98F
FRANKFORT      MOSUNNY   86  65  49 SW8       29.95F
LOUISVILLE     MOSUNNY   90  62  39 SW13      29.94F HX  90
LEBANON*         N/A     86  66  51 SW7       29.98S
GLASGOW*       SUNNY     88  65  47 SW7       29.97F HX  90
BOWLING GREEN  SUNNY     88  65  46 SW9       29.96F HX  90
$$

KYZ091>093-OHZ055-061-077-WVZ005-015-034-035-042-192100
...SOUTHERN OHIO/WEST VIRGINIA...

CITY           SKY/WX    TMP DP  RH WIND       PRES   REMARKS
COVINGTON      MOSUNNY   87  67  51 W10       29.94F HX  90
COLUMBUS       PTSUNNY   85  65  51 SW16G23   29.92S
DAYTON         MOSUNNY   85  64  49 W14       29.95F
WILMINGTON     SUNNY     85  67  54 W10G17    29.95F
HUNTINGTON     MOSUNNY   85  66  53 W7        29.96F
CHARLESTON     MOSUNNY   86  64  47 S10       29.96F
PINEVILLE*     SUNNY     84  63  49 MISG      30.06F
BECKLEY        MOSUNNY   81  59  47 NW3       30.05F
BLUEFIELD      SUNNY     77  59  53 VRB3      30.08F
LOGAN CO APT*    N/A     82  64  54 CALM      30.01F
$$

VAZ002-007-008-TNZ017-027-036-066-071-192100
...SOUTHWEST VIRGINIA/EAST TENNESSEE...

CITY           SKY/WX    TMP DP  RH WIND       PRES   REMARKS
WISE*          SUNNY     81  55  41 W3        30.09F
JONESVILLE*      N/A     86  63  45 CALM      30.03F
ABINGDON*      SUNNY     83  66  57 NW3       30.05F
BRISTOL        MOSUNNY   83  64  52 SW5       30.02F
MORRISTOWN*    CLEAR     84  63  48 VRB6G12   30.00F
SEVIERVILLE*   CLEAR     88  63  42 CALM      29.98F
KNOXVILLE      MOSUNNY   87  64  46 VRB6      29.99F
LAFOLLETTE*    PTCLDY    88  68  51 VRB5      30.03F HX  91
OAK RIDGE      MOSUNNY   87  64  46 VRB3      30.00F
CROSSVILLE     SUNNY     83  66  56 NW9       30.06F
NASHVILLE      MOSUNNY   90  66  45 SE3       29.97F HX  92
$$

...KEY TO REMARKS...
VSB - VISIBILITY IN MILES
WCI - WIND CHILL INDEX
HX  - HEAT INDEX

$$



USA.gov is the U.S. government's official web portal to all federal, state and local government web resources and services.